Home > Weather > Firozpur > Past weeks

Flag for India Weather for the Past 2 Weeks in Firozpur, Punjab, India

Now
57 °F

Clear.


Feels Like: 57 °F
Forecast: 46 / 72 °F
Wind: 3 mph from East

Location: Lahore Airport

Current Time: Feb 13, 2016 at 10:57:56 AM

Latest Report: Feb 13, 2016 at 10:25 AM


Visibility: 1 mi

Pressure: 30.07 "Hg

Humidity: 67%

Dew point: 46 °F

Location of FirozpurLocation

Historic Weather in Firozpur — Graph

°F

Firozpur Temperature Yesterday

Maximum temperature yesterday: 66 °F (at 2:30 PM)
Minimum temperature yesterday: 45 °F (at 5:25 AM)
Average temperature yesterday: 56 °F

High & Low Weather Summary for the Past Weeks

 TemperatureHumidityPressure
High75 °F (Feb 5, 2:25 PM)100% (Feb 10, 5:25 AM)30.15 "Hg (Feb 10, 5:25 AM)
Low45 °F (Feb 1, 7:30 AM)25% (Feb 4, 4:00 PM)29.65 "Hg (Feb 11, 5:25 AM)
Average59 °F65%30.00 "Hg
* Reported Jan 29 10:55 AM — Feb 13 9:25 AM, Firozpur, Weather by CustomWeather, © 2016

Note: Actual official high and low records may vary slightly from our data, if they occured in-between our weather recording intervals... More about our weather records

Advertising

Firozpur Weather History for the Previous 24 Hours

 ConditionsComfort  
Time TempWeatherWind HumidityBarometerVisibility
9:25 AM
Sat, Feb 13
54 °FPassing clouds.No wind77%30.04 "Hg1 mi
8:55 AM50 °FFog.No wind76%30.04 "Hg1 mi
8:30 AM46 °FFog.No wind87%30.01 "Hg1 mi
8:00 AM46 °FFog.No wind87%29.98 "Hg1 mi
7:30 AM46 °FFog.No wind87%29.98 "Hg1 mi
7:00 AM48 °FFog.3 mph87%29.95 "Hg2 mi
6:30 AM48 °FPassing clouds.No wind87%29.95 "Hg2 mi
6:00 AM50 °FPassing clouds.No wind82%29.95 "Hg2 mi
5:30 AM50 °FPassing clouds.3 mph82%29.95 "Hg2 mi
4:30 AM52 °FPassing clouds.No wind77%29.95 "Hg2 mi
4:00 AM52 °FPassing clouds.No wind77%29.95 "Hg2 mi
3:30 AM54 °FPassing clouds.No wind72%29.95 "Hg2 mi
3:00 AM54 °FPassing clouds.No wind77%29.95 "Hg2 mi
2:30 AM54 °FPassing clouds.3 mph77%29.95 "Hg2 mi
2:00 AM55 °FPassing clouds.3 mph72%29.95 "Hg2 mi
1:30 AM55 °FPassing clouds.No wind72%29.95 "Hg2 mi
12:30 AM55 °FPassing clouds.6 mph72%29.95 "Hg2 mi
12:00 AM57 °FPassing clouds.No wind72%29.95 "Hg2 mi
11:30 PM
Fri, Feb 12
57 °FPassing clouds.3 mph72%29.95 "Hg2 mi
11:00 PM57 °FPassing clouds.3 mph67%29.95 "Hg2 mi
10:30 PM57 °FPassing clouds.No wind67%29.98 "Hg2 mi
10:00 PM57 °FPassing clouds.3 mph63%29.95 "Hg2 mi
9:30 PM59 °FPassing clouds.5 mph59%29.95 "Hg2 mi
9:00 PM59 °FPassing clouds.3 mph63%29.95 "Hg2 mi
8:30 PM61 °FPassing clouds.6 mph59%29.95 "Hg2 mi
8:00 PM61 °FPassing clouds.5 mph55%29.95 "Hg2 mi
7:30 PM61 °FPassing clouds.6 mph55%29.95 "Hg2 mi
7:00 PM63 °FPassing clouds.6 mph52%29.95 "Hg2 mi
6:30 PM63 °FPassing clouds.7 mph52%29.95 "Hg2 mi
6:00 PM64 °FHaze.7 mph49%29.92 "Hg2 mi
5:30 PM66 °FScattered clouds.7 mph46%29.92 "Hg2 mi
5:00 PM66 °FHaze.9 mph46%29.92 "Hg2 mi
4:30 PM66 °FHaze.8 mph46%29.92 "Hg2 mi
4:00 PM66 °FHaze.3 mph46%29.92 "Hg2 mi
3:30 PM66 °FHaze.5 mph46%29.92 "Hg2 mi
3:00 PM66 °FHaze.5 mph46%29.92 "Hg1 mi
2:30 PM66 °FHaze.3 mph46%29.95 "Hg1 mi
2:00 PM64 °FPassing clouds.3 mph52%29.95 "Hg1 mi
1:30 PM64 °FScattered clouds.5 mph52%29.98 "Hg1 mi
12:55 PM63 °FScattered clouds.3 mph56%29.98 "Hg1 mi
12:25 PM61 °FScattered clouds.3 mph59%30.01 "Hg1 mi
11:55 AM59 °FScattered clouds.5 mph59%30.01 "Hg1 mi
11:30 AM59 °FScattered clouds.6 mph59%30.01 "Hg1 mi
11:00 AM55 °FScattered clouds.5 mph72%30.04 "Hg1 mi
10:00 AM52 °FClear.7 mph77%30.01 "Hg1 mi
Weather by CustomWeather, © 2016

See weather overviewHow to use our weather pages